Wind_Speed
33 30 27 28 26 31 34 30 30 34 36 36 34 36 39 42 42 43 49 50 52 52 51 55 59 58 62 68 71 68 72 74 75 73 75 77 75 75 75 77 78 73 71 71
35 34 29 28 27 26 26 27 26 30 35 37 37 41 46 46 45 48 50 52 55 55 55 56 60 63 69 72 74 76 76 78 78 77 79 77 79 80 81 83 79 77 76 76
39 36 32 33 29 26 27 28 29 32 32 32 33 39 43 45 48 48 50 53 55 58 59 59 62 68 72 76 76 76 78 81 80 81 80 82 83 84 86 85 83 81 77 76
44 40 36 34 36 30 31 31 32 32 35 39 41 35 47 47 50 53 56 58 60 60 58 65 67 71 75 75 76 80 82 83 82 83 84 85 88 89 89 87 82 77 75 73
45 45 38 38 38 39 36 38 36 36 37 35 42 48 54 53 54 57 59 60 61 64 68 63 68 72 75 76 81 84 85 86 86 86 87 91 93 93 90 82 75 74 74 73
43 44 40 36 35 40 37 40 42 42 47 52 56 57 59 60 60 60 61 61 66 66 64 66 71 74 75 78 83 85 87 87 89 88 91 94 95 93 84 75 74 73 72 71
42 43 42 43 42 39 39 40 43 48 51 53 57 59 61 61 60 58 63 64 67 67 65 70 73 74 78 82 84 89 89 91 90 93 97 98 95 86 81 75 73 69 70 72
40 41 41 39 39 39 39 46 50 48 50 50 54 57 59 59 59 58 62 68 69 68 70 72 74 78 84 87 86 86 90 92 95 100 101 94 89 84 77 73 70 71 71 72
40 39 39 40 40 41 43 48 48 46 46 50 51 52 56 55 58 63 67 69 68 70 74 81 81 83 84 85 87 90 92 97 100 98 93 92 88 82 79 77 72 71 70 67
37 36 37 37 36 35 37 39 42 45 47 49 51 53 54 59 64 65 66 68 71 77 80 82 81 80 84 86 88 92 96 96 92 93 91 89 87 87 86 82 76 69 64 61
33 32 36 37 33 38 39 43 46 48 50 53 51 56 60 64 67 66 67 72 75 78 77 78 81 84 88 91 92 90 91 91 92 91 88 89 91 89 86 74 61 54 53 54
23 25 27 34 38 41 43 41 39 45 52 58 60 63 65 65 65 69 71 73 73 72 76 80 84 88 89 88 90 92 93 93 93 93 91 88 87 79 64 53 44 42 45 49
31 36 34 35 37 38 38 41 45 49 54 55 57 60 60 65 67 67 65 65 70 74 79 83 86 83 85 89 90 92 94 94 93 89 84 75 63 54 45 37 34 38 42 43
21 24 25 26 28 30 35 39 42 42 46 54 57 60 62 60 58 59 65 69 72 76 80 78 79 84 87 92 95 96 96 90 81 70 57 49 41 35 31 29 32 36 37 42
27 29 26 26 28 31 36 37 37 47 47 51 55 51 48 50 56 61 64 69 73 75 72 76 78 82 86 90 93 92 80 66 54 45 36 30 27 26 28 29 33 38 41 43
27 33 31 28 24 26 30 40 47 51 52 47 44 49 51 55 58 63 66 70 68 70 72 74 77 82 86 89 82 67 53 44 33 29 27 26 27 31 34 37 40 43 46 49
28 29 28 22 25 31 36 40 48 51 39 44 47 51 54 55 60 63 67 61 66 70 68 71 78 84 86 74 57 45 33 27 24 25 28 31 36 39 42 47 49 53 56 56
26 26 29 25 27 32 37 50 48 39 43 45 48 48 55 59 59 59 58 62 66 68 71 74 79 82 71 53 40 29 22 21 23 26 33 38 44 49 54 56 60 65 62 57
19 23 26 31 35 42 51 49 43 43 42 43 50 53 53 57 51 54 57 58 63 65 70 73 78 72 56 40 28 17 18 21 26 33 40 46 53 59 65 69 68 60 53 46
24 26 28 34 40 45 42 40 40 39 41 48 50 49 51 46 52 52 55 59 63 64 67 74 75 60 44 31 18 17 21 26 33 38 45 53 58 65 72 67 53 43 37 31
23 25 31 37 39 38 35 36 36 41 46 47 48 43 43 47 49 54 58 59 62 65 65 71 70 53 39 25 17 21 25 31 38 46 53 59 65 73 68 49 38 33 28 21
25 30 35 41 38 34 34 35 38 45 42 45 37 40 43 48 53 55 56 57 61 61 64 68 65 50 36 21 21 25 32 39 47 51 59 63 69 73 57 40 30 26 17 11
29 35 42 43 35 34 34 36 42 39 41 33 36 39 44 48 52 53 54 55 57 60 63 68 63 48 28 22 28 34 43 47 52 58 63 66 71 69 52 38 27 19 10 3
30 41 43 33 30 31 35 41 37 37 29 32 34 38 41 44 45 47 51 50 53 58 59 64 62 46 33 31 35 40 45 50 55 60 65 67 71 68 51 39 29 19 12 5
46 37 30 26 28 32 39 34 32 24 26 29 34 33 36 39 41 45 48 52 53 58 61 62 62 53 45 41 42 46 49 52 56 62 65 67 70 72 52 38 33 26 19 13
29 27 25 27 31 33 32 23 20 22 23 25 27 33 36 32 41 45 51 54 56 58 61 63 64 57 53 50 49 50 52 55 58 63 64 66 68 71 64 43 42 36 29 19
Wind_Direction
250 246 248 240 255 266 273 276 277 283 286 281 285 284 292 293 288 286 292 292 294 296 297 296 292 292 300 302 304 309 309 311 310 306 306 308 307 307 307 308 308 305 301 296
252 248 244 242 257 265 263 281 285 283 282 277 281 279 286 286 285 289 292 291 296 298 298 295 291 293 300 302 303 305 307 310 309 307 308 308 308 308 309 309 308 306 301 296
253 253 246 244 255 267 269 285 291 290 284 286 290 293 290 284 287 288 291 297 300 299 298 298 299 298 299 301 305 306 308 309 307 307 308 307 308 308 308 309 309 306 303 300
249 255 252 250 252 267 278 281 284 283 290 293 296 298 291 293 296 297 296 298 301 298 296 299 297 298 299 302 303 306 307 308 307 307 307 307 308 310 310 310 308 306 303 300
247 253 253 251 258 260 274 276 279 285 292 292 294 297 297 298 297 298 300 302 301 299 304 302 299 300 303 305 305 307 308 308 307 307 309 310 310 310 310 311 309 305 303 300
246 250 252 252 260 262 266 271 272 277 282 289 295 297 296 298 300 301 300 300 302 302 305 302 300 301 303 303 305 306 307 307 308 309 309 309 308 308 310 310 306 304 302 299
245 251 254 256 259 264 274 275 281 281 286 289 292 294 295 297 301 299 300 301 302 309 305 298 301 303 303 304 307 306 307 307 307 308 308 308 307 308 307 306 303 301 302 298
246 248 251 256 259 266 268 277 275 279 288 291 292 294 294 297 298 300 300 306 310 307 302 303 303 304 305 307 307 307 306 305 306 306 306 306 306 304 303 303 300 299 299 298
251 252 250 252 255 261 267 270 280 283 286 288 289 289 291 298 299 301 307 309 305 302 303 304 304 306 307 307 307 307 305 304 304 305 304 304 304 304 303 304 301 296 294 293
253 254 255 256 259 264 273 274 276 283 286 285 287 291 294 297 300 305 305 302 300 303 304 306 306 307 307 308 306 305 303 303 305 305 304 305 306 306 305 303 299 294 290 290
252 257 260 258 253 256 262 272 279 285 284 285 289 296 299 302 304 305 301 302 304 307 308 308 310 310 308 307 305 306 307 306 306 306 306 307 307 304 304 301 297 291 288 291
234 247 258 258 262 270 275 280 282 286 286 287 292 298 301 302 303 303 304 306 308 309 310 310 309 308 309 310 311 310 308 309 308 307 307 306 304 304 302 300 295 290 290 295
247 253 263 273 278 281 285 285 287 291 295 301 301 302 304 303 304 306 309 310 311 311 310 310 311 312 311 311 312 312 311 310 309 307 306 305 304 305 303 301 295 291 296 300
268 273 275 280 284 290 291 295 304 310 309 305 303 304 306 308 311 312 311 312 312 311 312 313 314 314 315 316 316 315 313 311 310 309 310 309 310 308 303 300 299 302 303 305
276 276 273 275 290 299 305 308 310 315 311 305 306 308 311 312 312 311 311 312 313 315 317 319 319 318 317 316 315 314 313 313 314 316 319 322 318 318 320 320 314 310 308 308
268 263 273 294 301 308 305 309 309 311 309 309 312 312 311 310 310 312 317 317 319 321 321 320 320 319 319 319 317 317 318 321 329 340 347 346 345 337 331 325 317 310 309 309
282 269 275 294 295 296 300 301 300 306 309 312 312 312 312 314 318 318 320 323 324 324 323 322 322 322 323 322 323 326 332 352 3 7 358 355 350 340 331 325 321 318 313 307
273 280 280 293 306 301 299 308 305 306 309 312 312 311 317 319 319 323 326 327 327 327 327 327 326 327 329 329 333 343 9 21 8 4 360 352 344 336 329 323 318 312 306 300
282 284 294 303 302 302 306 305 308 310 312 312 314 319 321 322 325 328 330 331 331 333 335 334 332 335 337 339 344 15 27 13 3 0 354 347 341 334 329 322 313 308 301 295
279 284 301 306 306 302 302 307 310 312 313 318 320 322 324 328 331 334 335 334 336 337 337 337 341 343 344 348 9 25 16 6 3 355 350 345 339 334 327 321 315 306 298 290
286 299 308 306 303 302 305 311 309 314 319 322 323 328 330 332 334 335 338 343 342 343 342 343 348 350 354 360 20 14 8 2 356 350 346 345 342 336 331 329 319 311 304 293
280 295 302 307 306 305 308 309 316 321 325 324 331 333 335 337 339 342 346 346 346 345 349 350 351 353 359 11 8 6 2 358 353 350 349 348 345 340 342 338 331 324 318 294
285 294 299 301 305 305 311 317 319 323 325 333 337 338 339 344 348 350 350 350 349 351 356 357 358 359 12 9 360 4 0 358 355 354 355 354 353 350 352 353 353 345 340 313
293 291 297 302 306 307 316 318 322 324 330 338 339 341 350 357 359 356 358 355 355 358 1 3 7 6 19 10 3 1 357 358 357 357 358 359 1 1 2 7 10 15 22 68
290 292 296 302 307 316 317 320 323 327 340 341 345 355 355 355 6 9 8 13 12 12 13 12 17 14 18 10 2 357 353 354 356 358 2 4 6 11 10 19 30 38 49 67
291 296 300 310 314 315 318 322 325 336 341 346 352 355 353 358 2 4 9 11 14 14 17 18 18 15 12 7 4 1 356 355 356 358 2 6 9 13 22 31 43 45 51 67
Height
10876 10877 10878 10879 10879 10880 10880 10881 10881 10878 10874 10870 10869 10863 10861 10857 10854 10852 10849 10845 10840 10837 10831 10824 10816 10809 10803 10795 10788 10782 10773 10763 10752 10741 10730 10719 10709 10699 10691 10682 10671 10660 10651 10642
10870 10870 10873 10874 10874 10874 10874 10873 10872 10868 10866 10864 10861 10856 10852 10848 10845 10841 10838 10833 10828 10822 10816 10810 10802 10795 10788 10781 10772 10765 10755 10746 10734 10722 10712 10701 10690 10678 10668 10660 10650 10641 10631 10621
10863 10864 10866 10868 10868 10869 10868 10867 10863 10861 10858 10855 10853 10848 10842 10839 10835 10831 10827 10822 10815 10808 10802 10795 10788 10780 10774 10766 10754 10744 10735 10724 10714 10703 10692 10682 10671 10661 10649 10638 10627 10618 10609 10599
10855 10856 10861 10862 10860 10862 10858 10858 10857 10854 10852 10848 10843 10844 10829 10829 10825 10822 10816 10811 10804 10797 10789 10782 10772 10765 10758 10749 10736 10725 10716 10705 10694 10685 10674 10662 10651 10640 10627 10618 10606 10595 10588 10581
10846 10848 10852 10854 10853 10852 10851 10850 10849 10846 10843 10840 10834 10834 10821 10819 10815 10811 10805 10799 10791 10784 10775 10767 10758 10748 10740 10729 10718 10706 10694 10683 10674 10664 10653 10639 10626 10616 10604 10595 10585 10575 10567 10560
10836 10838 10842 10845 10843 10843 10843 10842 10841 10837 10834 10831 10825 10821 10810 10807 10805 10799 10792 10786 10778 10768 10760 10752 10744 10733 10724 10715 10702 10688 10677 10665 10652 10642 10632 10621 10609 10597 10586 10577 10568 10558 10549 10542
10828 10830 10832 10833 10834 10835 10835 10834 10832 10830 10825 10820 10815 10810 10801 10797 10794 10788 10781 10772 10763 10754 10744 10735 10727 10718 10707 10696 10687 10670 10656 10643 10633 10623 10612 10601 10589 10579 10570 10561 10551 10542 10532 10524
10819 10820 10822 10825 10827 10827 10826 10824 10821 10822 10816 10810 10805 10799 10790 10787 10783 10775 10767 10758 10748 10740 10729 10719 10712 10701 10689 10676 10666 10653 10637 10624 10613 10602 10591 10579 10570 10562 10554 10547 10536 10525 10516 10506
10810 10813 10813 10816 10817 10818 10817 10814 10812 10811 10808 10802 10796 10788 10779 10776 10770 10762 10753 10745 10736 10726 10715 10703 10693 10683 10669 10657 10645 10632 10618 10606 10594 10582 10569 10558 10548 10539 10531 10524 10516 10507 10497 10492
10804 10806 10806 10809 10810 10810 10809 10806 10804 10800 10798 10793 10786 10775 10772 10766 10758 10751 10743 10732 10722 10712 10699 10688 10677 10666 10652 10641 10629 10616 10602 10587 10573 10559 10547 10535 10524 10513 10504 10497 10491 10484 10477 10475
10798 10800 10798 10800 10801 10801 10799 10798 10796 10792 10787 10782 10778 10766 10761 10754 10745 10737 10728 10718 10707 10695 10684 10671 10658 10646 10632 10620 10607 10592 10577 10564 10551 10536 10523 10511 10499 10488 10479 10472 10467 10464 10461 10458
10790 10791 10791 10792 10794 10793 10791 10789 10786 10782 10777 10771 10764 10757 10750 10740 10731 10723 10713 10704 10693 10681 10669 10656 10642 10628 10613 10595 10582 10568 10555 10538 10523 10510 10498 10487 10475 10466 10458 10453 10451 10450 10447 10444
10784 10785 10786 10786 10786 10784 10782 10780 10776 10772 10767 10760 10753 10744 10737 10728 10719 10709 10700 10690 10680 10668 10655 10641 10624 10609 10595 10580 10563 10545 10529 10514 10500 10487 10476 10464 10455 10450 10445 10443 10441 10439 10436 10433
10779 10780 10780 10779 10778 10776 10774 10772 10768 10762 10755 10748 10740 10732 10723 10714 10706 10697 10687 10677 10667 10654 10639 10624 10609 10593 10574 10554 10536 10520 10504 10490 10477 10466 10457 10449 10444 10440 10438 10436 10433 10430 10426 10421
10775 10774 10775 10774 10773 10771 10766 10761 10756 10752 10745 10737 10729 10722 10713 10705 10697 10688 10678 10667 10654 10639 10624 10608 10591 10575 10557 10540 10521 10503 10485 10473 10461 10453 10447 10443 10440 10437 10433 10429 10425 10421 10416 10410
10768 10768 10768 10769 10766 10763 10759 10754 10748 10741 10733 10726 10719 10711 10703 10695 10686 10675 10663 10652 10638 10624 10609 10594 10577 10559 10540 10520 10501 10484 10471 10462 10454 10449 10445 10442 10438 10434 10429 10424 10419 10412 10405 10398
10762 10761 10762 10762 10759 10756 10752 10746 10739 10732 10725 10717 10709 10701 10692 10684 10673 10661 10650 10638 10625 10612 10598 10581 10563 10542 10521 10500 10484 10473 10464 10457 10453 10450 10446 10440 10434 10428 10422 10415 10406 10397 10390 10383
10756 10756 10756 10755 10751 10748 10743 10736 10729 10723 10716 10709 10701 10694 10684 10673 10663 10651 10640 10627 10613 10599 10583 10565 10546 10526 10504 10486 10475 10467 10461 10458 10456 10450 10443 10436 10429 10420 10410 10399 10387 10376 10366 10360
10750 10750 10749 10746 10741 10737 10732 10725 10719 10714 10707 10700 10692 10683 10672 10662 10653 10644 10632 10619 10604 10588 10571 10552 10533 10510 10492 10479 10471 10467 10463 10459 10454 10447 10440 10432 10420 10406 10390 10375 10359 10349 10340 10336
10746 10745 10742 10738 10734 10727 10723 10717 10711 10704 10698 10690 10682 10673 10663 10655 10645 10634 10623 10609 10594 10577 10561 10542 10521 10501 10488 10478 10473 10469 10464 10459 10453 10446 10436 10424 10409 10392 10372 10352 10336 10328 10321 10318
10738 10736 10734 10730 10727 10720 10715 10709 10703 10697 10690 10681 10673 10664 10657 10648 10637 10627 10614 10598 10584 10569 10553 10534 10513 10497 10485 10478 10474 10470 10465 10459 10451 10441 10429 10414 10395 10375 10351 10332 10320 10313 10308 10308
10730 10729 10726 10722 10717 10712 10707 10702 10696 10689 10681 10674 10666 10659 10651 10641 10630 10616 10603 10591 10577 10563 10547 10529 10510 10495 10485 10481 10477 10471 10465 10458 10448 10437 10422 10406 10386 10360 10336 10321 10310 10303 10300 10300
10722 10720 10718 10713 10706 10702 10699 10694 10688 10681 10674 10667 10661 10654 10645 10634 10621 10610 10598 10585 10573 10558 10542 10524 10507 10494 10486 10484 10480 10474 10466 10455 10445 10433 10419 10400 10378 10351 10331 10316 10306 10300 10298 10298
10715 10712 10708 10703 10699 10695 10690 10685 10680 10674 10668 10662 10656 10648 10639 10629 10619 10608 10597 10587 10572 10557 10542 10527 10509 10497 10490 10487 10483 10475 10466 10455 10443 10431 10417 10398 10377 10352 10332 10317 10307 10302 10300 10300
10706 10702 10699 10695 10691 10687 10682 10677 10672 10667 10662 10656 10650 10643 10634 10626 10617 10608 10598 10585 10572 10558 10545 10531 10516 10506 10498 10492 10485 10475 10465 10455 10443 10430 10417 10400 10381 10360 10338 10325 10315 10310 10308 10309
10697 10694 10691 10687 10683 10679 10675 10670 10665 10661 10657 10651 10645 10638 10631 10624 10617 10607 10596 10584 10571 10559 10546 10533 10521 10510 10502 10494 10485 10476 10465 10454 10443 10431 10418 10405 10388 10372 10354 10337 10327 10323 10321 10321